[[{"header":{"parameterUnit":"m.s-1","parameterCategory":1,"la1":30.2991,"la2":30.254,"lo1":-89.0895,"lo2":-89.0444,"dy":0.0017,"dx":0.0017,"nx":28,"ny":28,"refTime":"2024-12-13T09:00:00:Z","depth":0,"parameterNumber":2,"parameterNumberName":"U-component_of_WINDS"},"data":[0,0,0,0,0,0,0,0,0,0,0,0,0,0,0,0,0,0,0,0,0,0,0,0,0,0,0,0,0,0,0,0,0,0,0,0,0,0,0,0,0,0,0,0,0,0,0,0,0,0,0,0,0,0,0,0,0,0,-6.0718,-6.0718,0,-6.0752,-6.0752,-6.0752,-6.0597,-6.0593,-6.0588,-6.0584,-6.0619,-6.0624,-6.063,0,0,0,0,0,0,0,0,0,0,0,0,0,-6.0522,-6.0526,-6.0718,-6.0718,-6.0719,-6.0751,-6.0752,-6.0752,-6.0598,-6.0593,-6.0587,-6.0582,-6.0618,-6.0624,-6.063,0,0,0,0,0,0,0,0,0,0,0,0,0,-6.0587,-6.0528,-6.0718,-6.0646,-6.0639,-6.0751,-6.0752,-6.0752,-6.0599,-6.0592,-6.0586,-6.0579,-6.0616,-6.0623,-6.0631,-6.0814,0,0,-6.0654,-6.0658,0,0,0,0,0,0,0,0,-6.0583,-6.0594,-6.0656,-6.0651,-6.0644,-6.0663,-6.0696,-6.0773,-6.0601,-6.0615,-6.0584,-6.0576,-6.064,-6.0645,-6.0666,-6.0816,-6.0817,-6.0655,-6.066,-6.0663,-6.0665,0,0,0,0,0,0,0,-6.0579,-6.0592,-6.0731,-6.0657,-6.065,-6.0612,-6.0614,-6.071,-6.0665,-6.0613,-6.0602,-6.0608,-6.0635,-6.0659,-6.0666,-6.0818,-6.0655,-6.0662,-6.0667,-6.067,-6.112,-6.1127,0,0,0,0,0,0,-6.0584,-6.0589,-6.073,-6.0732,-6.0596,-6.0621,-6.0623,-6.0664,-6.0663,-6.0656,-6.0614,-6.06,-6.0649,-6.0657,-6.0666,-6.088,-6.0663,-6.067,-6.0675,-6.1113,-6.1121,-6.1129,0,0,0,0,0,0,-6.058,-6.0598,-6.0729,-6.0658,-6.0671,-6.0632,-6.0679,-6.0668,-6.0692,-6.0664,-6.0655,-6.0646,-6.0644,-6.0656,-6.0778,-6.0879,-6.0674,-6.0681,-6.1104,-6.1115,-6.1125,-6.131,0,0,0,0,0,0,-6.0575,-6.0597,-6.0666,-6.066,-6.0676,-6.084,-6.0685,-6.0674,-6.0705,-6.0689,-6.0692,-6.0686,-6.064,-6.0768,-6.0786,-6.0886,-6.0687,-6.1095,-6.1109,-6.1122,-6.1295,-6.1326,-6.1353,0,0,0,0,0,-6.0569,-6.0717,-6.067,-6.0688,-6.0761,-6.0846,-6.0855,-6.0798,-6.0714,-6.0783,-6.0765,-6.0686,-6.0866,-6.0782,-6.0801,-6.0905,-6.1088,-6.1105,-6.1121,-6.1282,-6.132,-6.1352,0,0,0,0,0,0,-6.0735,-6.0714,-6.0663,-6.0813,-6.0833,-6.082,-6.0904,-6.0841,-6.0884,-6.0867,-6.0795,-6.0798,-6.0933,-6.0931,-6.0838,-6.1083,-6.0962,-6.0984,-6.1078,-6.1114,-6.1143,-6.114,-6.0693,0,0,0,0,0,-6.0789,-6.086,-6.0839,-6.0974,-6.0986,-6.0945,-6.098,-6.0935,-6.0952,-6.0959,-6.095,-6.0971,-6.1031,-6.1073,-6.1128,-6.1295,-6.1293,-6.1376,-6.1405,-6.1429,-6.1448,-6.1536,-6.1573,-6.1183,-6.1183,-6.1183,0,0,-6.0902,-6.09,-6.0948,-6.1007,-6.1017,-6.1092,-6.0952,-6.1038,-6.1093,-6.0972,-6.1087,-6.1082,-6.11,-6.1246,-6.131,-6.1249,-6.1556,-6.145,-6.147,-6.1475,-6.1557,-6.1594,-6.1627,-6.1195,-6.1193,-6.1191,0,0,-6.1145,-6.1151,-6.1264,-6.1277,-6.1293,-6.1265,-6.1293,-6.1291,-6.1282,-6.1397,-6.1308,-6.1374,-6.148,-6.1497,-6.1519,-6.1772,-6.17,-6.1792,-6.1943,-6.203,-6.2061,-6.2088,-6.2177,-6.221,-6.1811,-6.1812,-6.1812,0,-6.1282,-6.1392,-6.133,-6.1422,-6.145,-6.1346,-6.146,-6.1476,-6.151,-6.1532,-6.1464,-6.1596,-6.1601,-6.1749,-6.1811,-6.1833,-6.1863,-6.179,-6.2061,-6.2088,-6.2112,-6.2196,-6.223,-6.1822,-6.1821,-6.182,-6.1819,0,-6.156,-6.1638,-6.1727,-6.1763,-6.1802,-6.1905,-6.1859,-6.1906,-6.1859,-6.1839,-6.1958,-6.196,-6.2013,-6.2046,-6.2,-6.2189,-6.215,-6.2074,-6.195,-6.2161,-6.2239,-6.2271,-6.1838,-6.1834,-6.1831,-6.1828,0,0,-6.1906,-6.1908,-6.1941,-6.1957,-6.1969,-6.2028,-6.2127,-6.2179,-6.2221,-6.225,-6.233,-6.2424,-6.2353,-6.2379,-6.2335,-6.2412,-6.2612,-6.2325,-6.2324,-6.2377,-6.2819,-6.2876,-6.2915,-6.2566,-6.2572,-6.2577,-6.2818,0,-6.2143,-6.2311,-6.2259,-6.2429,-6.25,-6.2403,-6.2489,-6.2507,-6.2491,-6.255,-6.2532,-6.26,-6.2501,-6.2516,-6.2588,-6.2573,-6.2699,-6.2555,-6.264,-6.2644,-6.2637,-6.2955,-6.3015,-6.3242,-6.2848,-6.2853,-6.2857,0,-6.2441,-6.2481,-6.2658,-6.2659,-6.2687,-6.2766,-6.281,-6.2868,-6.2886,-6.2869,-6.29,-6.2841,-6.2938,-6.2818,-6.2952,-6.2854,-6.2887,-6.2885,-6.2892,-6.2896,-6.2762,-6.2967,-6.3314,-6.3347,-6.2904,-6.2901,-6.2897,0,-6.2674,-6.2773,-6.2891,-6.2908,-6.2912,-6.297,-6.2975,-6.2986,-6.3022,-6.3062,-6.3084,-6.3135,-6.3163,-6.3204,-6.316,-6.3076,-6.3301,-6.3177,-6.329,-6.3291,-6.3339,-6.3336,-6.3695,-6.3364,-6.3364,-6.3363,-6.3362,0,-6.2943,-6.3055,-6.2996,-6.3069,-6.3191,-6.3132,-6.3256,-6.325,-6.3262,-6.3332,-6.3253,-6.332,-6.326,-6.3323,-6.329,-6.3405,-6.3419,-6.3408,-6.3398,-6.3414,-6.3416,-6.3433,-6.3415,-6.3372,-6.337,-6.3368,-6.3367,0,-6.3222,-6.3188,-6.331,-6.3306,-6.3307,-6.3398,-6.3394,-6.3462,-6.3442,-6.3532,-6.355,-6.3518,-6.3588,-6.355,-6.3622,-6.36,-6.375,-6.3719,-6.3743,-6.3734,-6.3849,-6.3839,-6.4229,-6.4277,-6.3918,-6.3922,-6.3925,0,-6.3395,-6.3478,-6.3484,-6.3525,-6.3535,-6.3603,-6.3639,-6.3586,-6.3626,-6.3655,-6.372,-6.3783,-6.383,-6.3947,-6.3931,-6.3986,-6.3955,-6.4088,-6.3962,-6.3977,-6.3955,-6.395,-6.3958,-6.4113,-6.4117,-6.412,-6.4123,0,-6.3704,-6.3684,-6.3738,-6.3789,-6.3834,-6.3871,-6.39,-6.3939,-6.3886,-6.3937,-6.4007,-6.4045,-6.4119,-6.4183,-6.4231,-6.4236,-6.4172,-6.4164,-6.4192,-6.4209,-6.4219,-6.4214,-6.381,-6.4154,-6.4151,-6.4149,-6.4147,-6.4146,-6.3934,-6.4004,-6.4019,-6.4083,-6.4101,-6.4131,-6.4195,-6.4183,-6.4241,-6.4297,-6.4263,-6.4346,-6.4364,-6.4422,-6.4437,-6.4501,-6.4448,-6.449,-6.45,-6.4511,-6.4526,-6.4211,-6.451,-6.4509,-6.4508,-6.4508,-6.4507,0,-6.4238,-6.4244,-6.4304,-6.4348,-6.44,-6.4336,-6.4366,-6.4413,-6.4488,-6.451,-6.4559,-6.4642,-6.4704,-6.4694,-6.4751,-6.4805,-6.4777,-6.4822,-6.4816,-6.4818,-6.4571,-6.454,-6.4843,-6.4843,-6.4843,-6.4843,-6.4843,-6.4843,-6.4402,-6.4517,-6.4499,-6.4623,-6.4628,-6.4709,-6.4732,-6.476,-6.4778,-6.4873,-6.4925,-6.4918,-6.4928,-6.4985,-6.504,-6.5036,-6.506,-6.5115,-6.51,-6.4869,-6.4836,-6.4804,-6.4774,-6.5122,-6.5122,-6.5341,-6.5343,-6.5345]},{"header":{"parameterUnit":"m.s-1","parameterCategory":1,"la1":30.2991,"la2":30.254,"lo1":-89.0895,"lo2":-89.0444,"dy":0.0017,"dx":0.0017,"nx":28,"ny":28,"refTime":"2024-12-13T09:00:00:Z","depth":0,"parameterNumber":3,"parameterNumberName":"V-component_of_WINDS"},"data":[0,0,0,0,0,0,0,0,0,0,0,0,0,0,0,0,0,0,0,0,0,0,0,0,0,0,0,0,0,0,0,0,0,0,0,0,0,0,0,0,0,0,0,0,0,0,0,0,0,0,0,0,0,0,0,0,0,0,-1.2245,-1.2244,0,-1.2187,-1.2186,-1.2185,-1.2164,-1.2164,-1.2165,-1.2165,-1.2101,-1.2099,-1.2098,0,0,0,0,0,0,0,0,0,0,0,0,0,-1.2332,-1.2331,-1.2245,-1.2244,-1.2243,-1.2187,-1.2186,-1.2185,-1.2164,-1.2164,-1.2165,-1.2165,-1.2102,-1.21,-1.2097,0,0,0,0,0,0,0,0,0,0,0,0,0,-1.2286,-1.233,-1.2245,-1.2226,-1.2224,-1.2187,-1.2186,-1.2185,-1.2164,-1.2164,-1.2165,-1.2165,-1.2103,-1.21,-1.2097,-1.2073,0,0,-1.2088,-1.2087,0,0,0,0,0,0,0,0,-1.2289,-1.2283,-1.223,-1.2227,-1.2225,-1.2183,-1.2193,-1.2147,-1.2164,-1.2187,-1.2165,-1.2165,-1.2128,-1.2123,-1.2111,-1.207,-1.2068,-1.2088,-1.2086,-1.2085,-1.2084,0,0,0,0,0,0,0,-1.2292,-1.2285,-1.2222,-1.2229,-1.2226,-1.2219,-1.2213,-1.2185,-1.2156,-1.2185,-1.2183,-1.2177,-1.2127,-1.2114,-1.211,-1.2067,-1.2088,-1.2086,-1.2084,-1.2083,-1.1999,-1.1999,0,0,0,0,0,0,-1.2299,-1.2288,-1.2224,-1.222,-1.2258,-1.2217,-1.221,-1.2196,-1.2156,-1.2151,-1.2176,-1.2176,-1.2119,-1.2113,-1.2107,-1.2075,-1.2085,-1.2083,-1.2081,-1.2,-1.1999,-1.1999,0,0,0,0,0,0,-1.2301,-1.2294,-1.2226,-1.2254,-1.2244,-1.2215,-1.22,-1.2195,-1.2182,-1.215,-1.2145,-1.2169,-1.2119,-1.2111,-1.2081,-1.2072,-1.2081,-1.2079,-1.2001,-1.2,-1.1999,-1.2011,0,0,0,0,0,0,-1.2304,-1.2294,-1.2287,-1.2254,-1.2243,-1.2203,-1.2199,-1.2193,-1.2178,-1.2177,-1.2142,-1.2136,-1.2118,-1.2086,-1.2079,-1.2068,-1.2077,-1.2001,-1.2,-1.1999,-1.2011,-1.201,-1.201,0,0,0,0,0,-1.2307,-1.2292,-1.2286,-1.2279,-1.2233,-1.2202,-1.2196,-1.2177,-1.2177,-1.2168,-1.2147,-1.2138,-1.2075,-1.2083,-1.2075,-1.2064,-1.2002,-1.2001,-1.1999,-1.2011,-1.201,-1.201,0,0,0,0,0,0,-1.2324,-1.2288,-1.2281,-1.2255,-1.2232,-1.2199,-1.2187,-1.2177,-1.2153,-1.2152,-1.2128,-1.212,-1.2092,-1.2075,-1.2085,-1.2037,-1.2037,-1.2034,-1.2049,-1.2048,-1.2047,-1.2052,-1.2074,0,0,0,0,0,-1.2325,-1.2305,-1.2273,-1.2254,-1.2243,-1.2217,-1.2203,-1.219,-1.2164,-1.2154,-1.2131,-1.2105,-1.2079,-1.2063,-1.2038,-1.2008,-1.1999,-1.1996,-1.1996,-1.1995,-1.1993,-1.1973,-1.197,-1.1995,-1.1995,-1.1995,0,0,-1.2327,-1.2304,-1.2293,-1.2257,-1.2237,-1.2215,-1.2209,-1.2186,-1.2168,-1.215,-1.212,-1.2102,-1.2072,-1.2041,-1.2027,-1.2026,-1.1984,-1.1994,-1.1994,-1.1991,-1.1971,-1.1969,-1.1967,-1.1994,-1.1994,-1.1994,0,0,-1.2318,-1.23,-1.228,-1.2261,-1.2231,-1.2214,-1.2209,-1.2177,-1.2164,-1.2134,-1.2119,-1.2097,-1.2054,-1.2031,-1.2015,-1.1994,-1.1984,-1.1987,-1.1983,-1.1964,-1.1962,-1.196,-1.1951,-1.1948,-1.1984,-1.1984,-1.1984,0,-1.2323,-1.2291,-1.2271,-1.2248,-1.2232,-1.2215,-1.2193,-1.2175,-1.2138,-1.2126,-1.2126,-1.2069,-1.2048,-1.2011,-1.2005,-1.1993,-1.1985,-1.199,-1.1964,-1.1962,-1.196,-1.1951,-1.1947,-1.1985,-1.1985,-1.1985,-1.1985,0,-1.2297,-1.2274,-1.2262,-1.2227,-1.2209,-1.2187,-1.2162,-1.2145,-1.2133,-1.2115,-1.2082,-1.2056,-1.2023,-1.2014,-1.2002,-1.1973,-1.1974,-1.197,-1.1969,-1.1959,-1.1949,-1.1945,-1.1985,-1.1985,-1.1985,-1.1985,0,0,-1.2299,-1.2253,-1.2248,-1.2231,-1.2196,-1.2177,-1.2152,-1.2121,-1.2106,-1.2081,-1.2058,-1.2021,-1.2016,-1.1997,-1.1982,-1.1965,-1.1947,-1.1962,-1.1961,-1.1958,-1.1911,-1.1913,-1.1909,-1.194,-1.1939,-1.1939,-1.1913,0,-1.2284,-1.2242,-1.2223,-1.2188,-1.2165,-1.2147,-1.2125,-1.21,-1.2081,-1.2057,-1.2036,-1.2009,-1.2006,-1.1994,-1.1977,-1.1953,-1.1937,-1.1955,-1.1916,-1.1915,-1.1923,-1.1905,-1.1908,-1.1885,-1.1909,-1.1908,-1.1908,0,-1.2262,-1.2237,-1.22,-1.2165,-1.2154,-1.2136,-1.2104,-1.2082,-1.2052,-1.2039,-1.2016,-1.2002,-1.1972,-1.1975,-1.1933,-1.1945,-1.1928,-1.1914,-1.1912,-1.1907,-1.191,-1.1897,-1.1877,-1.1873,-1.1902,-1.1903,-1.1903,0,-1.2265,-1.2221,-1.2193,-1.2179,-1.2138,-1.2124,-1.2107,-1.2077,-1.2058,-1.203,-1.2017,-1.1985,-1.1968,-1.1942,-1.1918,-1.1923,-1.1877,-1.1878,-1.1863,-1.1864,-1.1854,-1.1855,-1.1829,-1.1846,-1.1846,-1.1846,-1.1846,0,-1.225,-1.2227,-1.2193,-1.2175,-1.2148,-1.2125,-1.2098,-1.2079,-1.2052,-1.2028,-1.201,-1.1988,-1.1958,-1.1931,-1.1912,-1.1878,-1.1871,-1.1858,-1.1853,-1.1859,-1.186,-1.1846,-1.1846,-1.1845,-1.1845,-1.1845,-1.1846,0,-1.2249,-1.2225,-1.2192,-1.2156,-1.2146,-1.2127,-1.2095,-1.2075,-1.2055,-1.2025,-1.2016,-1.1984,-1.1951,-1.1925,-1.1882,-1.1868,-1.1832,-1.1827,-1.1843,-1.184,-1.1825,-1.1826,-1.1789,-1.1781,-1.1805,-1.1805,-1.1805,0,-1.224,-1.2222,-1.2183,-1.2166,-1.2149,-1.2122,-1.2103,-1.2078,-1.2058,-1.202,-1.2005,-1.1971,-1.1942,-1.1889,-1.1861,-1.1827,-1.182,-1.1809,-1.1814,-1.182,-1.1816,-1.1817,-1.1814,-1.1808,-1.1808,-1.1808,-1.1808,0,-1.2227,-1.2215,-1.2189,-1.2158,-1.2135,-1.2109,-1.2082,-1.2069,-1.2038,-1.2016,-1.1982,-1.196,-1.1915,-1.188,-1.1843,-1.1822,-1.1808,-1.1806,-1.18,-1.1805,-1.1814,-1.1806,-1.1839,-1.1807,-1.1807,-1.1807,-1.1807,-1.1807,-1.2221,-1.2203,-1.2172,-1.2142,-1.2119,-1.2093,-1.2072,-1.2049,-1.2021,-1.1983,-1.1969,-1.1934,-1.19,-1.1848,-1.1827,-1.1797,-1.1795,-1.1788,-1.1786,-1.1784,-1.1783,-1.182,-1.179,-1.179,-1.179,-1.179,-1.179,0,-1.2205,-1.2183,-1.2156,-1.2119,-1.2094,-1.2085,-1.2053,-1.2033,-1.2002,-1.1973,-1.1944,-1.1903,-1.1869,-1.1837,-1.1799,-1.1781,-1.1774,-1.1772,-1.1772,-1.1767,-1.1788,-1.1795,-1.1778,-1.1778,-1.1778,-1.1779,-1.1779,-1.1779,-1.2194,-1.2162,-1.2146,-1.2101,-1.2079,-1.2045,-1.2028,-1.2003,-1.1979,-1.1934,-1.1905,-1.1885,-1.1853,-1.1813,-1.1779,-1.177,-1.1756,-1.1756,-1.1745,-1.1765,-1.1766,-1.1767,-1.1774,-1.1753,-1.1753,-1.1726,-1.1726,-1.1726]}]]